TimeEST,TemperatureF,Dew PointF,Humidity,Sea Level PressureIn,VisibilityMPH,Wind Direction,Wind SpeedMPH,Gust SpeedMPH,PrecipitationIn,Events,Conditions,WindDirDegrees,DateUTC
12:15 AM,49.3,44.6,84,30.07,7.0,ESE,4.6,-,N/A,,Overcast,110,2012-11-10 05:15:00
12:35 AM,49.6,44.6,83,30.07,7.0,ESE,5.8,-,N/A,,Overcast,120,2012-11-10 05:35:00
12:55 AM,49.6,44.6,83,30.06,7.0,SE,4.6,-,N/A,,Overcast,130,2012-11-10 05:55:00
1:15 AM,49.5,44.6,83,30.06,7.0,ESE,4.6,-,N/A,,Overcast,120,2012-11-10 06:15:00
1:35 AM,49.5,44.6,83,30.06,7.0,ESE,4.6,-,N/A,,Overcast,120,2012-11-10 06:35:00
1:55 AM,49.6,44.8,83,30.06,7.0,ESE,4.6,-,N/A,,Overcast,120,2012-11-10 06:55:00
2:15 AM,50.0,45.0,83,30.06,7.0,ESE,3.5,-,N/A,,Overcast,120,2012-11-10 07:15:00
2:35 AM,49.8,44.8,83,30.07,7.0,SE,4.6,-,N/A,,Overcast,130,2012-11-10 07:35:00
3:15 AM,49.6,44.8,83,30.07,7.0,ESE,5.8,-,N/A,,Overcast,120,2012-11-10 08:15:00
3:35 AM,49.6,44.6,83,30.07,7.0,ESE,4.6,-,N/A,,Overcast,120,2012-11-10 08:35:00
3:55 AM,49.5,44.6,83,30.07,7.0,ESE,5.8,-,N/A,,Overcast,120,2012-11-10 08:55:00
4:15 AM,49.1,44.6,84,30.07,5.0,ESE,5.8,-,N/A,,Overcast,120,2012-11-10 09:15:00
4:35 AM,49.1,44.6,84,30.07,5.0,ESE,4.6,-,N/A,,Overcast,110,2012-11-10 09:35:00
4:55 AM,49.1,44.8,85,30.07,5.0,ESE,5.8,-,N/A,,Overcast,110,2012-11-10 09:55:00
5:15 AM,49.1,44.8,85,30.07,5.0,ESE,4.6,-,N/A,,Overcast,120,2012-11-10 10:15:00
5:35 AM,48.7,44.6,86,30.07,5.0,SE,3.5,-,N/A,,Overcast,130,2012-11-10 10:35:00
5:55 AM,48.7,44.6,86,30.06,5.0,ESE,5.8,-,N/A,,Overcast,120,2012-11-10 10:55:00
6:15 AM,48.6,44.6,86,30.06,5.0,SE,3.5,-,N/A,,Overcast,140,2012-11-10 11:15:00
6:55 AM,48.9,44.8,86,30.07,5.0,SE,3.5,-,N/A,,Overcast,140,2012-11-10 11:55:00
7:15 AM,48.9,44.8,86,30.06,5.0,East,3.5,-,N/A,,Overcast,100,2012-11-10 12:15:00
7:35 AM,49.1,45.0,86,30.07,4.0,Calm,Calm,-,N/A,,Overcast,0,2012-11-10 12:35:00
7:55 AM,49.1,45.0,86,30.07,4.0,Calm,Calm,-,N/A,,Overcast,0,2012-11-10 12:55:00
8:15 AM,49.5,45.3,86,30.07,4.0,SE,3.5,-,N/A,,Overcast,130,2012-11-10 13:15:00
8:35 AM,50.0,45.5,85,30.07,4.0,SE,4.6,-,N/A,,Haze,130,2012-11-10 13:35:00
8:55 AM,51.1,46.0,83,30.08,5.0,SE,4.6,-,N/A,,Haze,140,2012-11-10 13:55:00
9:15 AM,51.8,45.7,80,30.08,7.0,SSE,5.8,-,N/A,,Overcast,150,2012-11-10 14:15:00
9:35 AM,52.9,45.7,77,30.07,7.0,SSE,5.8,-,N/A,,Overcast,150,2012-11-10 14:35:00
9:55 AM,53.6,45.3,74,30.07,10.0,SSE,5.8,-,N/A,,Overcast,160,2012-11-10 14:55:00
10:15 AM,54.7,45.7,72,30.06,10.0,South,6.9,-,N/A,,Overcast,170,2012-11-10 15:15:00
10:35 AM,55.6,45.7,69,30.06,10.0,South,8.1,-,N/A,,Overcast,170,2012-11-10 15:35:00
10:55 AM,55.6,45.3,68,30.03,10.0,SE,8.1,-,N/A,,Overcast,140,2012-11-10 15:55:00
11:15 AM,57.7,45.9,65,30.04,10.0,SSE,9.2,-,N/A,,Scattered Clouds,160,2012-11-10 16:15:00
11:35 AM,59.0,46.2,63,30.03,10.0,SSE,8.1,-,N/A,,Scattered Clouds,150,2012-11-10 16:35:00
11:55 AM,59.2,46.4,63,30.03,10.0,SSE,8.1,-,N/A,,Clear,150,2012-11-10 16:55:00
12:15 PM,60.8,46.9,60,30.02,10.0,South,9.2,-,N/A,,Scattered Clouds,170,2012-11-10 17:15:00
12:35 PM,61.7,47.3,59,30.02,10.0,South,9.2,-,N/A,,Mostly Cloudy,180,2012-11-10 17:35:00
12:55 PM,61.2,46.9,60,30.02,10.0,South,8.1,-,N/A,,Mostly Cloudy,190,2012-11-10 17:55:00
1:15 PM,61.3,46.9,59,30.01,10.0,South,10.4,-,N/A,,Overcast,180,2012-11-10 18:15:00
1:35 PM,61.7,47.1,59,29.99,10.0,SSE,8.1,-,N/A,,Overcast,160,2012-11-10 18:35:00
1:55 PM,63.5,47.1,55,29.99,10.0,South,9.2,-,N/A,,Overcast,170,2012-11-10 18:55:00
2:15 PM,64.6,47.1,53,29.99,10.0,SSE,12.7,-,N/A,,Scattered Clouds,160,2012-11-10 19:15:00
2:35 PM,63.9,47.5,55,29.98,10.0,South,9.2,-,N/A,,Scattered Clouds,170,2012-11-10 19:35:00
2:55 PM,66.2,47.7,51,29.97,10.0,SSE,10.4,-,N/A,,Scattered Clouds,160,2012-11-10 19:55:00
3:15 PM,64.4,47.5,54,29.97,10.0,SSE,6.9,-,N/A,,Scattered Clouds,160,2012-11-10 20:15:00
3:35 PM,64.4,48.0,55,29.98,10.0,South,6.9,-,N/A,,Scattered Clouds,170,2012-11-10 20:35:00
3:55 PM,64.4,47.7,55,29.96,10.0,South,10.4,17.3,N/A,,Scattered Clouds,170,2012-11-10 20:55:00
4:15 PM,63.7,48.2,57,29.97,10.0,South,9.2,-,N/A,,Clear,170,2012-11-10 21:15:00
4:35 PM,63.5,48.2,57,29.98,10.0,South,8.1,-,N/A,,Clear,170,2012-11-10 21:35:00
4:55 PM,63.5,47.8,57,29.97,10.0,South,8.1,-,N/A,,Mostly Cloudy,170,2012-11-10 21:55:00
5:15 PM,62.6,48.2,59,29.97,10.0,South,8.1,-,N/A,,Scattered Clouds,170,2012-11-10 22:15:00
5:55 PM,62.4,47.7,58,29.94,10.0,SE,9.2,-,N/A,,Clear,140,2012-11-10 22:55:00
6:15 PM,62.6,47.7,58,29.93,10.0,SSE,11.5,18.4,N/A,,Clear,150,2012-11-10 23:15:00
6:35 PM,62.2,47.8,59,29.95,10.0,South,10.4,-,N/A,,Clear,170,2012-11-10 23:35:00
6:55 PM,62.6,48.2,59,29.97,10.0,SSW,8.1,-,N/A,,Clear,200,2012-11-10 23:55:00
7:15 PM,62.2,48.6,61,29.97,10.0,South,8.1,-,N/A,,Clear,180,2012-11-11 00:15:00
7:35 PM,61.7,49.1,63,29.98,10.0,South,6.9,-,N/A,,Clear,180,2012-11-11 00:35:00
7:55 PM,61.5,49.3,64,29.97,10.0,South,9.2,-,N/A,,Clear,190,2012-11-11 00:55:00
8:15 PM,61.9,49.1,63,29.98,10.0,SSW,9.2,-,N/A,,Clear,200,2012-11-11 01:15:00
8:35 PM,61.2,48.7,64,29.98,10.0,South,9.2,-,N/A,,Clear,190,2012-11-11 01:35:00
8:55 PM,60.4,48.6,65,29.98,10.0,South,10.4,-,N/A,,Clear,180,2012-11-11 01:55:00
9:15 PM,61.3,47.7,61,29.98,10.0,South,11.5,-,N/A,,Clear,190,2012-11-11 02:15:00
9:35 PM,63.5,46.2,53,29.98,10.0,SSW,12.7,17.3,N/A,,Clear,200,2012-11-11 02:35:00
9:55 PM,63.9,45.7,52,29.98,10.0,SSW,11.5,18.4,N/A,,Clear,200,2012-11-11 02:55:00
10:35 PM,64.2,45.1,50,29.98,10.0,SSW,16.1,21.9,N/A,,Clear,200,2012-11-11 03:35:00
11:15 PM,63.3,45.0,51,29.98,10.0,SSW,15.0,20.7,N/A,,Clear,210,2012-11-11 04:15:00
11:35 PM,63.0,45.1,52,29.98,10.0,SSW,15.0,20.7,N/A,,Clear,210,2012-11-11 04:35:00
11:55 PM,62.8,45.3,53,29.98,10.0,SSW,16.1,25.3,N/A,,Clear,210,2012-11-11 04:55:00